HUMPTULLIPS WA US current weather conditions

sailwx.info

Wind from 271 at 0 knots gusting 4

Air temperature 5.0° C
Dewpoint 5.0° C

Last reported at 2019-Dec-13 23:08 UTC.
Time now 2019-Dec-14 00:33 UTC

Location: N 47°23' W 123°46'.
View on Google Maps.

See reports from other nearby stations

  
Tides and Currents Weather Stations Pressure Air Temp Water Temp Dewpoint Dewpoint Depression Visibility Wind Speed Wind Dir Waves Ship Positions
date/time (UTC)wind fromknots sea level pressurealtimeterstation pressurevisibilityair tempwater tempwave heightnotes
2019-Dec-13 23:08 271 0 gusting 4 5.0
2019-Dec-13 22:08 250 1 gusting 5 3.9
2019-Dec-13 21:08 246 2 gusting 5 6.7
2019-Dec-13 20:08 248 1 gusting 3 5.0
2019-Dec-13 19:08 4.4
2019-Dec-13 18:08 076 2 gusting 3 2.8
2019-Dec-13 17:08 077 2 gusting 3 1.7
2019-Dec-13 16:08 071 2 gusting 4 1.7
2019-Dec-13 15:08 319 0 gusting 4 1.7
2019-Dec-13 14:08 220 1 gusting 6 2.2
2019-Dec-13 13:08 293 4 gusting 10 2.2
2019-Dec-13 12:08 260 4 gusting 12 2.2
2019-Dec-13 11:08 257 3 gusting 12 3.3
2019-Dec-13 10:08 258 6 gusting 13 3.3
2019-Dec-13 09:08 249 6 gusting 13 3.3
2019-Dec-13 08:08 264 5 gusting 12 3.3
2019-Dec-13 07:08 265 7 gusting 15 3.3
2019-Dec-13 06:08 268 6 gusting 14 2.8
2019-Dec-13 05:08 257 6 gusting 14 3.3
2019-Dec-13 04:08 265 7 gusting 12 2.8
2019-Dec-13 03:08 253 5 gusting 17 3.9
2019-Dec-13 02:08 266 6 gusting 18 4.4
2019-Dec-13 01:08 247 6 gusting 17 3.9
2019-Dec-13 00:08 265 7 gusting 17 3.9
2019-Dec-12 23:08 269 7 gusting 19 3.9
2019-Dec-12 22:08 265 8 gusting 24 3.3
2019-Dec-12 21:08 234 11 gusting 26 4.4
2019-Dec-12 20:08 223 11 gusting 24 5.0
2019-Dec-12 19:08 209 6 gusting 24 4.4
2019-Dec-12 18:08 186 11 gusting 23 4.4
2019-Dec-12 17:08 191 10 gusting 21 3.9
2019-Dec-12 16:08 211 9 gusting 27 4.4
2019-Dec-12 15:08 223 6 gusting 19 5.0
2019-Dec-12 14:08 230 10 gusting 25 5.6
2019-Dec-12 13:08 239 10 gusting 21 5.6
2019-Dec-12 12:08 237 11 gusting 21 5.6
2019-Dec-12 11:08 252 6 gusting 20 5.6
2019-Dec-12 10:08 251 8 gusting 21 5.6
2019-Dec-12 09:08 262 8 gusting 26 5.6
2019-Dec-12 08:08 257 7 gusting 24 5.6
2019-Dec-12 06:08 196 8 gusting 19 5.6
2019-Dec-12 05:08 078 9 gusting 14 3.9
2019-Dec-12 04:08 079 5 gusting 13 3.9
2019-Dec-12 03:08 096 6 gusting 25 3.9
2019-Dec-12 02:08 070 6 gusting 13 3.9
2019-Dec-12 01:08 078 3 gusting 19 3.9
2019-Dec-12 00:08 137 11 gusting 26 3.9